STARLINK-32186, 60412

Orbit data source: Space-Track

STARLINK-32186, 60412 is a payload satellite owned by SpaceX/Seattle (US) in LEO that was launched on Sat, 10 Aug 2024 UTC via an FALCON 9 launch vehicle from the Air Force Eastern Test Range (AFETR). Payload-class satellites include a variety of spacecraft equipped with specific instruments for various scientific and technological missions. These include communications satellites like Starlink; space stations such as the ISS; scientific satellites like the Hubble; Earth observation satellites from companies like Planet Labs, Umbra, and HawkEye 360; GPS; miniature CubeSats for education and research; and military/defense satellites.

Loading next visibility...
Identifier
60412, 2024-141Q
Orbit
LEO
Country
Flag of USUS
Related business
Manufacturer
SpaceX/Seattle
Mission
Operational Commercial Communications
Bus & Motor
STARLINK V2M, Unknown motor
Mass
730 kg wet, ~700 kg dry
Launch date (UTC)
2024-08-10 (1 year ago)
Launch vehicle
FALCON 9
Launch site
Air Force Eastern Test Range (AFETR)
Object type
Payload
Rocket body
Debris
Shape & HBR
Box + 2 Pan, 14.5 m
Radar Cross Section
36.964 m², Large (>1 m²)

Expand to show TLE details & history
Last TLE update: 9 hours ago

TLE from 9 hours ago
0 STARLINK-32186
1 60412U 24141Q   25260.83723984 -.00002674  00000-0 -78263-4 0  9995
2 60412  53.1605 325.6492 0001107 113.7889 246.3228 15.30173959 63056
Epoch: 2025-09-17T20:05Z
TLE epoch observation values (Epoch: 2025-09-17T20:05:37.522Z)
Latitude
Longitude
27.2354°
Altitude
476.497 km
Speed
7.629 km/s
True Right ascension
21h 42m 35s
True Declination
0° 00' 00"
Sunlit
Object was in full shadow at epoch
Visualization orbit readout
Latitude
Unknown
Longitude
Unknown
Altitude
Unknown
Speed
Unknown
Apparent Right ascension
Unknown
Apparent Declination
Unknown
Sunlit
N/A
Visualization observer readout
Local Sidereal Time
22:00:23
Azimuth
Unknown
Elevation
Unknown
Doppler factor
Unknown
Orbital elements
Apogee altitude
476.308 km
Perigee altitude
474.79 km
Semi-major axis
6,853.686 km
Eccentricity
0.00011
Inclination
53.1605°
RAAN
325.6492°
Arg. of periapsis
113.7889°
True anomaly
246.31118°
Mean anomaly
246.3228°
Eccentric anomaly
246.31699°
Mean motion
3.82522 °/min
Orbital period
94.11 mins
BSTAR
-0.000078263
Loading maneuver chart data...
Computing Atmospheric mass density...
Loading historical data...
Loading historical data...
Loading historical data...
Loading historical data...
Loading historical data...
Loading historical data...
Loading historical data...

Documentation

Showing up to 5 results
|